Regional Weather Roundup
Issued by NWS

Home | Current Version | Previous Version | Graphics & Text | Print | Product List | Glossary On
Versions: 1 2 3 4 5 6 7 8 9 10 11 12 13 14 15 16 17 18 19 20 21 22 23 24 25 26 27
000
ASUS45 KSLC 140410
RWRUT

UTAH REGIONAL WEATHER ROUNDUP
NATIONAL WEATHER SERVICE SALT LAKE CITY UT
900 PM MST WED DEC 13 2017

UTZ001>011-023>025-140500-

NORTHERN UTAH

CITY           SKY/WX    TMP DP  RH WIND       PRES   REMARKS
BRIGHAM CITY   CLOUDY    26  24  91 CALM      30.28R
HILL AFB       LGT SNOW  26  25  96 N5        30.23S FOG     WCI  20
LOGAN          CLOUDY    27  22  81 SW5       30.29R WCI  22
OGDEN          CLOUDY    27  24  89 NW6       30.24S FOG     WCI  20
SALT LAKE CITY CLOUDY    30  26  85 NW8       30.26R FOG     WCI  22
TOOELE VALLEY  CLOUDY    28  27  93 SW3       30.29R FOG
WENDOVER       PTCLDY    14  11  87 CALM      30.31R
HEBER CITY     FLURRIES  32  28  86 E5        30.16R WCI  27
WEST JORDAN    CLOUDY    27  27 100 NW5       30.26S WCI  21

$$

UTZ011>015-024>027-140500-

CENTRAL/NORTHEAST UTAH

CITY           SKY/WX    TMP DP  RH WIND       PRES   REMARKS
PROVO AIRPORT  CLOUDY    30  25  81 NW18      30.23R FOG     WCI  18
MOAB/CANYONLAN CLOUDY    40  26  57 NW7       30.04F
DELTA          MOCLDY    28  16  59 N8        30.19R WCI  20
PRICE          CLOUDY    42  27  55 NW21G29   30.06S
RICHFIELD      MOCLDY    34   9  35 CALM      30.16R
ROOSEVELT      CLOUDY    30  10  43 S5        30.11R WCI  25
VERNAL         CLOUDY    40  25  55 E12       30.09S WCI  33

$$

UTZ013>016-019>022-027-140500-

SOUTHERN UTAH

CITY           SKY/WX    TMP DP  RH WIND       PRES   REMARKS
BRYCE CANYON     N/A    N/A N/A N/A MISG      30.13R
CEDAR CITY     MOCLDY    27   8  44 SW5       30.12R WCI  22
MILFORD        MOCLDY    26  13  57 NE8       30.16R WCI  18
ST GEORGE      MOCLDY    41   6  23 CALM      30.03R
HANKSVILLE     CLOUDY    37   5  25 CALM      30.07F
KANAB          CLEAR     32   7  34 N5        30.09R WCI  27
BLANDING         N/A     35   3  26 N6        30.09S WCI  30

$$

REGIONAL REPORTS     COLORADO/ARIZONA

CITY           SKY/WX    TMP DP  RH WIND       PRES   REMARKS
CRAIG, CO      LGT SNOW  33  25  72 VRB6      30.12R WCI  28
GRAND JUNCTION CLOUDY    36  13  38 N6        30.05R WCI  31
RIFLE, CO      CLOUDY    34  16  47 NW5       30.04R WCI  30
MONTROSE, CO   CLOUDY    37  12  35 N3        30.06R
CORTEZ, CO     CLOUDY    31   7  36 E3        30.03F
COLORADO CITY    N/A     32   0  25 CALM      30.07R
PAGE, AZ       CLOUDY    42  15  33 CALM      30.01S
GRAND CANYON   MOCLDY    22   2  42 E3        30.09R
KINGMAN, AZ    PTCLDY    39   8  27 S5        30.01R
FLAGSTAFF, AZ  PTCLDY    28   1  31 SW3       30.07F

$$

REGIONAL REPORTS    NEVADA/IDAHO/WYOMING

CITY           SKY/WX    TMP DP  RH WIND       PRES   REMARKS
LAS VEGAS, NV  PTCLDY    53  13  20 SW6       29.97S
ELY, NY        CLEAR     28   8  43 NW7       30.20R WCI  21
ELKO, NV       PTCLDY    24  18  77 N3        30.28R
POCATELLO, ID  CLOUDY    23  20  88 S7        30.36R WCI  15
BURLEY, ID     CLOUDY    23  19  85 W5        30.38R WCI  17
FORT BRIDGER,  FLURRIES  30  25  79 W10       30.18R WCI  21
EVANSTON, WY   FLURRIES  27  26  96 N8        30.18R WCI  19
ROCK SPRINGS,  CLOUDY    28  24  85 NE8       30.17R WCI  20

$$




USA.gov is the U.S. government's official web portal to all federal, state and local government web resources and services.